ATLAS 5 CENTAUR DEB, 43982

Orbit data source: Space-Track

ATLAS 5 CENTAUR DEB, 43982 is space debris in HEO originally from a launch on Wed, 17 Sep 2014 UTC launched from the Air Force Eastern Test Range (AFETR). Debris objects in space refer to the collection of defunct objects orbiting the Earth. Examples of debris include non-operational satellites, rocket bodies, and fragments generated from explosions, collisions, or faulty payload assembly.

Loading next visibility...
Identifier
43982, 2014-055AM
Orbit
HEO
Country
Flag of USUS
Related business
Flag of USUnited Launch Alliance/Lockheed Martin (US)
Manufacturer
Unknown
Mission
Spacecraft
Bus & Motor
Unknown
Mass
Unknown
Launch date (UTC)
Icon of a cake. It is the launch day of the satellite!2014-09-17 (11 years ago)
Launch vehicle
Unknown
Launch site
Air Force Eastern Test Range (AFETR)
Object type
Payload
Rocket body
Debris
Shape & HBR
Unknown
Radar Cross Section
RCS unknown

Expand to show TLE details & history
Last TLE update: 23 hours ago

TLE from 23 hours ago
0 ATLAS 5 CENTAUR DEB
1 43982U 14055AM  25259.63992379 -.00000027  00000-0  00000-0 0  9992
2 43982  19.5092 216.2956 4698456  40.2700 346.3921  1.75471865 45012
Epoch: 2025-09-16T15:21Z
TLE epoch observation values (Epoch: 2025-09-16T15:21:29.415Z)
Latitude
0.00002°
Longitude
-9.96367°
Altitude
10,304.09 km
Speed
5.836 km/s
True Right ascension
14h 24m 56s
True Declination
0° 00' 00"
Sunlit
Object was in daylight at epoch
Visualization orbit readout
Latitude
Unknown
Longitude
Unknown
Altitude
Unknown
Speed
Unknown
Apparent Right ascension
Unknown
Apparent Declination
Unknown
Sunlit
N/A
Visualization observer readout
Local Sidereal Time
07:05:23
Azimuth
Unknown
Elevation
Unknown
Doppler factor
Unknown
Orbital elements
Apogee altitude
36,302.376 km
Perigee altitude
9,016.175 km
Semi-major axis
29,037.412 km
Eccentricity
0.46985
Inclination
19.5092°
RAAN
216.2956°
Arg. of periapsis
40.27°
True anomaly
319.51842°
Mean anomaly
346.3921°
Eccentric anomaly
335.02638°
Mean motion
0.43864 °/min
Orbital period
820.72 mins
BSTAR
0
Loading maneuver chart data...
Computing Atmospheric mass density...
Loading historical data...
Loading historical data...
Loading historical data...
Loading historical data...
Loading historical data...
Loading historical data...
Loading historical data...

Documentation

Showing up to 5 results
|